Regional Weather Roundup
Issued by NWS

Home | Current Version | Previous Version | Graphics & Text | Print | Product List | Glossary On
Versions: 1 2 3 4 5 6 7 8 9 10 11 12 13 14 15 16 17 18 19 20 21 22 23 24 25 26 27 28
000
ASUS45 KSLC 271310
RWRUT

UTAH REGIONAL WEATHER ROUNDUP
NATIONAL WEATHER SERVICE SALT LAKE CITY UT
700 AM MDT MON MAR 27 2017

UTZ001>011-023>025-271400-

NORTHERN UTAH

CITY           SKY/WX    TMP DP  RH WIND       PRES   REMARKS
BRIGHAM CITY     N/A     39  35  86 CALM      29.87S
HILL AFB       MOCLDY    43  32  64 E13       29.86S
LOGAN          PTCLDY    37  33  85 CALM      29.86S
OGDEN          PTCLDY    43  34  70 SE7       29.85S
SALT LAKE CITY MOCLDY    46  38  73 SE9       29.86S
WENDOVER       CLOUDY    43  38  82 NW6       29.87F
HEBER CITY     MIX PCPN  39  32  75 CALM      29.91R

$$

UTZ011>015-024>027-271400-

CENTRAL/NORTHEAST UTAH

CITY           SKY/WX    TMP DP  RH WIND       PRES   REMARKS
PROVO AIRPORT  LGT RAIN  44  40  85 E5        29.91S
MOAB/CANYONLAN CLOUDY    44  29  55 NW3       29.87F
DELTA          MOCLDY    45  32  61 S6        29.84F
PRICE          CLOUDY    41  30  65 N3        29.90S
ROOSEVELT      CLOUDY    43  34  70 N7        29.94R
VERNAL         CLOUDY    41  32  70 CALM      29.92S

$$

UTZ013>016-019>022-027-271400-

SOUTHERN UTAH

CITY           SKY/WX    TMP DP  RH WIND       PRES   REMARKS
BRYCE CANYON   CLOUDY    33  28  81 NE5       29.94F WCI  29
CEDAR CITY     CLOUDY    43  32  65 S6        29.88R
MILFORD        CLOUDY    45  33  63 VRB6      29.86F
ST GEORGE      CLOUDY    50  36  58 NE3       29.84F
HANKSVILLE     MOCLDY    43  30  61 CALM      29.89F
BLANDING       CLOUDY    41  24  51 E5        30.03R

$$

REGIONAL REPORTS     COLORADO/ARIZONA

CITY           SKY/WX    TMP DP  RH WIND       PRES   REMARKS
CRAIG, CO      CLOUDY    30  25  81 SE5       29.96S WCI  25
GRAND JUNCTION MOCLDY    45  29  53 E12       29.91S
RIFLE, CO      CLOUDY    38  30  73 SW5       29.95F WCI  34
MONTROSE, CO   CLOUDY    40  29  64 SE8       29.97F WCI  34
CORTEZ, CO     CLOUDY    31  27  85 CALM      29.98F
COLORADO CITY  CLOUDY    45  37  76 SE5       29.92F
PAGE, AZ       CLOUDY    50  33  52 CALM      29.89F
GRAND CANYON   CLOUDY    31  29  92 CALM      29.99S
KINGMAN, AZ    PTCLDY    51  26  37 S7        29.88S
FLAGSTAFF, AZ  CLOUDY    33  27  78 CALM      30.00F

$$

REGIONAL REPORTS    NEVADA/IDAHO/WYOMING

CITY           SKY/WX    TMP DP  RH WIND       PRES   REMARKS
LAS VEGAS, NV  PTCLDY    59  35  40 S15G24    29.76F
ELY, NY        LGT RAIN  35  34  96 N6        29.92F WCI  30
ELKO, NV       CLOUDY    37  34  89 SW5       29.92S WCI  33
POCATELLO, ID  CLOUDY    36  35  96 NW5       29.87R WCI  32
BURLEY, ID     CLOUDY    38  36  92 W8        29.88S WCI  32
EVANSTON, WY   CLOUDY    32  27  81 S6        29.92S WCI  26
ROCK SPRINGS,  CLOUDY    35  26  69 SE8       29.93S WCI  29
KEMMERER, WY     N/A     32  27  80 N3        29.92F

$$




USA.gov is the U.S. government's official web portal to all federal, state and local government web resources and services.